Location: Newark
(46.2031°N, 3.4731°E)
Time: 05:38:18
(UTC+00:00)

Envisat - Pass Details

Date: 23 September 2019
Orbit: 764 x 766 km, 98.1° (Epoch: 16 October)

Event Time Altitude Azimuth Distance (km) Brightness Sun altitude
Rises 19:12:12 0° 211° (SSW) 3,221 6.4 -16.1°
Reaches altitude 10° 19:15:19 10° 231° (SW) 2,301 5.9 -16.6°
Maximum altitude 19:18:32 17° 271° (W) 1,881 6.0 -17.2°
Drops below altitude 10° 19:21:45 10° 310° (NW) 2,311 6.6 -17.7°
Sets 19:24:55 0° 331° (NNW) 3,243 7.0 -18.2°
